Total_Precipitation_Accumulation
0.70 0.73 0.60 0.42 0.34 0.36 0.38 0.38 0.41 0.49 0.59 0.67 0.64 0.57 0.54 0.58 0.71 0.86 0.92 1.01 1.10 1.14 1.21 1.23 1.22 1.26 1.31 1.26 1.34 1.47 1.63 1.77 1.64 1.53 1.45 1.41 1.34 1.24 1.11 0.91 0.79 0.70 0.62
1.10 1.16 1.00 0.62 0.40 0.33 0.27 0.26 0.34 0.46 0.56 0.62 0.59 0.53 0.51 0.57 0.70 0.85 1.00 1.20 1.33 1.30 1.22 1.15 1.07 1.14 1.23 1.24 1.33 1.36 1.42 1.64 1.64 1.61 1.60 1.62 1.53 1.35 1.25 1.11 0.91 0.79 0.75
0.99 1.09 0.88 0.49 0.30 0.23 0.21 0.25 0.39 0.51 0.56 0.57 0.57 0.62 0.72 0.80 0.92 1.04 1.10 1.24 1.29 1.20 1.16 1.09 1.02 1.02 1.07 1.17 1.28 1.32 1.32 1.39 1.53 1.57 1.60 1.67 1.65 1.45 1.27 1.15 1.05 1.07 0.98
0.59 0.74 0.61 0.37 0.26 0.23 0.23 0.27 0.32 0.36 0.42 0.52 0.64 0.81 0.92 0.98 1.01 1.08 1.07 1.05 1.05 0.96 0.90 0.86 0.90 1.01 1.07 1.07 1.06 1.10 1.15 1.25 1.35 1.41 1.50 1.62 1.67 1.60 1.38 1.26 1.24 1.20 1.12
0.51 0.65 0.54 0.37 0.29 0.23 0.20 0.21 0.26 0.35 0.40 0.53 0.68 0.78 0.77 0.79 0.84 0.91 0.93 0.90 0.86 0.80 0.72 0.59 0.59 0.75 0.90 0.93 0.87 0.91 0.96 1.05 1.10 1.20 1.31 1.46 1.56 1.64 1.46 1.28 1.24 1.31 1.27
0.45 0.63 0.61 0.46 0.33 0.24 0.22 0.25 0.36 0.42 0.48 0.57 0.63 0.63 0.60 0.46 0.41 0.43 0.50 0.58 0.64 0.64 0.57 0.52 0.52 0.53 0.56 0.58 0.62 0.67 0.74 0.83 0.95 1.11 1.23 1.32 1.35 1.45 1.54 1.51 1.45 1.41 1.41
0.44 0.57 0.62 0.55 0.45 0.38 0.31 0.34 0.42 0.48 0.54 0.61 0.60 0.60 0.60 0.57 0.39 0.28 0.27 0.36 0.44 0.46 0.47 0.51 0.42 0.37 0.41 0.42 0.42 0.40 0.42 0.48 0.61 0.83 1.05 1.15 1.27 1.30 1.51 1.57 1.59 1.70 1.71
0.45 0.59 0.64 0.62 0.60 0.60 0.53 0.51 0.54 0.58 0.62 0.66 0.63 0.65 0.69 0.65 0.49 0.36 0.28 0.26 0.34 0.38 0.42 0.46 0.47 0.48 0.49 0.50 0.48 0.46 0.40 0.38 0.40 0.48 0.69 0.94 1.15 1.38 1.46 1.54 1.62 1.69 1.72
0.49 0.64 0.72 0.75 0.78 0.76 0.74 0.74 0.78 0.82 0.77 0.74 0.76 0.79 0.82 0.82 0.64 0.42 0.31 0.33 0.43 0.45 0.47 0.49 0.50 0.51 0.50 0.38 0.41 0.44 0.44 0.46 0.37 0.37 0.47 0.69 0.89 1.00 1.22 1.43 1.56 1.49 1.43
0.70 0.79 0.93 1.07 1.16 1.16 1.11 1.04 1.00 1.05 0.97 0.91 0.86 0.86 0.87 0.92 0.82 0.50 0.35 0.44 0.61 0.65 0.68 0.64 0.51 0.44 0.39 0.29 0.35 0.47 0.45 0.45 0.50 0.47 0.41 0.47 0.61 0.75 0.81 0.94 1.15 1.27 1.17
0.85 0.92 1.09 1.33 1.42 1.32 1.27 1.20 1.13 1.14 1.16 1.14 1.03 1.00 1.02 1.05 0.97 0.61 0.48 0.59 0.75 0.84 0.83 0.78 0.70 0.50 0.35 0.30 0.31 0.40 0.42 0.46 0.58 0.63 0.62 0.61 0.72 0.84 0.81 0.78 0.87 0.99 1.02
0.96 1.12 1.29 1.47 1.39 1.23 1.37 1.34 1.32 1.38 1.36 1.30 1.24 1.15 1.12 1.12 0.99 0.71 0.48 0.56 0.74 0.93 0.99 0.94 0.84 0.60 0.42 0.35 0.33 0.33 0.30 0.32 0.44 0.56 0.60 0.59 0.64 0.74 0.83 0.82 0.85 0.89 0.92
0.98 1.12 1.26 1.35 1.44 1.48 1.47 1.43 1.44 1.45 1.43 1.32 1.27 1.21 1.16 1.20 1.17 0.77 0.55 0.60 0.70 0.85 1.05 1.04 0.85 0.66 0.55 0.44 0.40 0.41 0.37 0.36 0.46 0.52 0.53 0.54 0.55 0.66 0.86 0.99 1.01 1.02 0.99
0.84 0.88 1.00 1.19 1.31 1.42 1.61 1.64 1.59 1.50 1.47 1.42 1.32 1.25 1.21 1.26 1.29 1.02 0.74 0.71 0.77 0.84 0.97 1.03 0.91 0.76 0.67 0.58 0.52 0.50 0.48 0.48 0.55 0.57 0.58 0.62 0.65 0.73 0.82 0.91 1.00 1.03 0.99
0.90 0.90 0.94 1.04 1.23 1.34 1.48 1.56 1.54 1.53 1.35 1.27 1.17 1.11 1.12 1.18 1.17 0.96 0.85 0.87 0.99 1.04 1.03 1.08 1.10 0.99 0.87 0.78 0.74 0.76 0.76 0.71 0.66 0.69 0.73 0.75 0.75 0.76 0.82 0.88 0.95 0.98 0.92
1.06 1.00 1.00 1.06 1.21 1.31 1.38 1.35 1.17 1.10 0.91 0.80 0.77 0.73 0.75 0.80 0.90 0.78 0.68 0.78 0.95 1.03 1.00 1.04 1.13 1.13 1.05 0.97 0.92 0.95 0.95 0.90 0.84 0.86 0.85 0.84 0.82 0.80 0.83 0.88 0.91 0.91 0.87
1.21 1.10 1.03 0.99 1.05 1.12 1.24 1.38 1.42 1.19 0.94 0.76 0.65 0.56 0.55 0.61 0.70 0.69 0.65 0.71 0.81 0.86 0.88 0.95 1.04 1.11 1.08 1.05 1.00 0.99 0.96 0.98 0.99 0.95 0.91 0.91 0.89 0.83 0.82 0.84 0.86 0.89 0.88
1.18 1.07 0.98 0.98 1.01 1.04 1.11 1.23 1.40 1.43 1.22 0.91 0.76 0.64 0.54 0.52 0.54 0.59 0.60 0.66 0.76 0.81 0.83 0.89 0.95 1.00 1.01 1.03 1.03 1.03 1.00 1.02 1.00 0.97 0.93 0.92 0.91 0.86 0.85 0.86 0.83 0.83 0.87
1.07 1.00 0.92 0.95 0.98 0.97 1.03 1.11 1.21 1.29 1.22 1.06 0.88 0.70 0.55 0.47 0.50 0.55 0.55 0.63 0.78 0.82 0.82 0.86 0.87 0.88 0.92 0.96 0.96 1.00 1.00 0.95 0.93 0.96 0.92 0.87 0.87 0.86 0.84 0.84 0.84 0.85 0.85
1.03 0.85 0.79 0.84 0.89 0.91 0.98 1.04 1.08 1.14 1.14 1.08 0.96 0.73 0.54 0.49 0.57 0.64 0.64 0.73 0.83 0.83 0.79 0.82 0.78 0.77 0.81 0.87 0.91 0.96 0.95 0.95 0.96 0.93 0.90 0.86 0.83 0.81 0.79 0.80 0.82 0.83 0.82
0.98 0.83 0.63 0.62 0.71 0.78 0.87 0.95 0.99 1.00 1.04 1.03 0.88 0.62 0.43 0.40 0.52 0.67 0.77 0.81 0.81 0.81 0.75 0.71 0.67 0.68 0.73 0.77 0.81 0.84 0.88 0.93 0.91 0.88 0.91 0.87 0.81 0.81 0.80 0.81 0.78 0.79 0.81
0.92 0.84 0.68 0.60 0.63 0.68 0.76 0.87 0.89 0.87 0.87 0.86 0.76 0.57 0.41 0.38 0.51 0.64 0.71 0.71 0.70 0.72 0.68 0.63 0.61 0.64 0.66 0.68 0.73 0.79 0.83 0.85 0.85 0.86 0.88 0.87 0.86 0.85 0.84 0.86 0.84 0.83 0.83
0.88 0.80 0.69 0.62 0.64 0.62 0.66 0.77 0.78 0.75 0.73 0.68 0.62 0.55 0.46 0.48 0.55 0.64 0.66 0.65 0.64 0.61 0.59 0.59 0.56 0.55 0.59 0.62 0.63 0.68 0.73 0.73 0.74 0.76 0.81 0.85 0.85 0.85 0.87 0.88 0.84 0.81 0.80
0.80 0.76 0.64 0.60 0.61 0.66 0.67 0.70 0.66 0.62 0.60 0.56 0.52 0.51 0.50 0.54 0.57 0.58 0.59 0.58 0.57 0.52 0.49 0.50 0.51 0.51 0.54 0.58 0.57 0.56 0.59 0.61 0.62 0.65 0.68 0.72 0.74 0.80 0.85 0.86 0.83 0.80 0.83
0.77 0.78 0.68 0.58 0.57 0.60 0.62 0.63 0.61 0.59 0.54 0.48 0.48 0.48 0.51 0.53 0.53 0.56 0.55 0.52 0.48 0.46 0.43 0.44 0.49 0.49 0.45 0.46 0.46 0.46 0.48 0.47 0.46 0.52 0.60 0.68 0.69 0.74 0.82 0.85 0.84 0.82 0.85
0.70 0.73 0.67 0.57 0.53 0.53 0.54 0.61 0.63 0.58 0.52 0.46 0.45 0.47 0.45 0.42 0.41 0.43 0.42 0.40 0.39 0.39 0.39 0.41 0.43 0.43 0.42 0.40 0.39 0.38 0.36 0.33 0.34 0.40 0.45 0.54 0.62 0.65 0.71 0.77 0.76 0.81 0.84